Terminal Aerodrome Forecast
Issued by NWS

Home | Current Version | Previous Version | Text Only | Print | Product List | Glossary Off
Versions: 1 2 3 4 5 6 7 8 9 10 11 12 13 14 15 16 17 18 19

000
FTUS43 KMPX 270500
TAFAXN
TAF
KAXN 270525Z 2706/2806 VRB03KT P6SM BKN100 BKN250
      TEMPO 2706/2707 -SHRA
     FM271400 14006KT P6SM SCT070 SCT250=

USA.gov is the U.S. government's official web portal to all federal, state and local government web resources and services.